www.pogodaiklimat.ru

Погода и климат >> Архив погоды >> Польша >> Вроцлав


АРХИВ ПОГОДЫ во Вроцлаве

Время (UTC), дата Ветер
(напр.,м/с)
 
Видим.   Явления Облачность Т
(С)
Тd
(С)
f
(%)
Тe
(С)
Тes
(С)
Комфортность P
(гПа)
Po
(гПа)
Тmin
(С)
Tmax
(С)
R
(мм)
R24
(мм)
S
(см)
10 14.04 СВ 4 25 км 9/6 1000 м
[Sc Ac As]
+8.9 +2.0 62 +6 +8 по сезону 1022.2 1007.3
11 14.04 СВ 6
{9}
25 км 9/0
[Ac trans Ci fib]
+11.1 +1.3 51 +8 +11 по сезону 1022.1 1007.3
12 14.04 СВ 4
{9}
30 км 9/1 1000 м
[Cu hum Ac trans Ci fib]
+12.2 +1.8 49 +11 +15 по сезону 1021.8 1007.1
13 14.04 В 6 30 км 9/1 1000 м
[Cu hum Ac trans Ci fib]
+13.2 +0.9 43 +11 +13 тепло 1021.7 1007.0
14 14.04 СВ 7
{12}
30 км 6/0
[Ac As Ci fib]
+13.7 -0.4 38 +12 +13 тепло 1021.5 1006.9
15 14.04 В 6
{12}
30 км 9/0
[Ac As Ci fib]
+13.9 -0.6 37 +12 +13 тепло 1021.6 1007.0
16 14.04 СВ 5 30 км 9/0
[Ac lent Ci fib]
+13.7 -2.3 33 +12 +13 тепло 1021.8 1007.2
17 14.04 СВ 4 40 км 9/0
[Ac trans Ci fib]
+12.7 -2.0 36 +11 +11 тепло 1022.3 1007.6
18 14.04 СВ 3
{12}
40 км 6/0
[Ac trans Ci fib]
+11.0 -2.4 39 +10 +10 по сезону 1023.1 1008.3 +5.1 +14.3
19 14.04 СВ 4 40 км 6/0
[Ac trans]
+10.0 -3.3 39 +8 +8 тепло 1024.1 1009.2
20 14.04 СВ 4 40 км 5/0
[Ac trans]
+9.2 -3.7 40 +7 +7 тепло 1024.5 1009.6
21 14.04 СВ 4 40 км 1/0
[Ac trans]
+8.1 -4.1 42 +6 +6 по сезону 1025.0 1010.0
22 14.04 СВ 3 40 км 1/0
[Ci fib]
+7.2 -4.3 44 +5 +5 тепло 1025.4 1010.4
23 14.04 СВ 3 40 км 1/0
[Ci fib]
+6.5 -4.3 46 +4 +4 тепло 1025.9 1010.8
00 15.04 СВ 3 40 км ясно +5.6 -4.6 48 +3 +3 по сезону 1025.8 1010.7
01 15.04 СВ 3 40 км ясно +5.0 -4.6 50 +2 +2 тепло 1026.2 1011.0
02 15.04 С 2 30 км ясно +3.2 -4.3 58 +1 +1 по сезону 1026.7 1011.4
03 15.04 С 2 30 км 1/0
[Ci fib]
+2.7 -4.3 60 0 0 по сезону 1026.8 1011.5
04 15.04 З 1 30 км 1/0
[Ci fib]
+0.7 -4.5 68 -1 -1 по сезону 1027.2 1011.8
05 15.04 СЗ 1 30 км 1/0
[Ci fib]
+1.3 -3.8 69 -0 +1 по сезону 1027.7 1012.3
06 15.04 З 2 15 км 1/0
[Ac trans Ci fib]
+3.3 -2.2 67 +1 +3 по сезону 1027.9 1012.6 -0.1 +11.0
07 15.04 СЗ 1 20 км 1/0
[Ac trans Ci fib]
+5.7 -3.4 52 +5 +11 тепло 1027.9 1012.8
08 15.04 СВ 1 40 км 1/0
[Ac trans Ci fib]
+8.1 -2.3 48 +8 +17 тепло 1028.1 1013.1
09 15.04 В 3 40 км 1/0
[Ac trans Ci fib]
+10.2 -3.2 39 +9 +17 по сезону 1027.7 1012.8
10 15.04 СВ 4 40 км {метель} 1/1 1500 м
[Cu hum Ac trans Ci fib]
+11.4 -3.5 35 +10 +17 тепло 1027.1 1012.3
11 15.04 В 5 40 км 3/3 1500 м
[Cu hum Ac trans Ci fib]
+11.8 -3.6 34 +10 +15 по сезону 1026.7 1011.9
12 15.04 СВ 3 40 км 3/3 2000 м
[Cu hum]
+12.3 -4.4 31 +11 +18 по сезону 1026.3 1011.5
13 15.04 СВ 4
{9}
40 км 1/1 2000 м
[Cu hum]
+12.5 -4.6 30 +11 +17 тепло 1025.6 1010.8
14 15.04 СВ 4 40 км 1/1 2000 м
[Sc diur, vesp]
+13.0 -4.6 29 +12 +16 тепло 1024.9 1010.2
15 15.04 СВ 4
{9}
40 км 1/0 2000 м
[Ac cuf]
+12.9 -4.7 29 +12 +14 тепло 1024.7 1010.0
16 15.04 СВ 3 40 км ясно +12.4 -5.2 29 +11 +13 тепло 1024.4 1009.7
17 15.04 СВ 3 40 км ясно +11.7 -6.2 28 +11 +11 тепло 1024.4 1009.6
18 15.04 СВ 2
{9}
40 км ясно +10.5 -5.5 32 +10 +10 по сезону 1024.4 1009.6 +3.3 +13.2
19 15.04 СВ 2 40 км ясно +9.0 -4.6 38 +8 +8 тепло 1024.8 1009.9
20 15.04 СВ 2 35 км ясно +7.9 -4.2 42 +7 +7 тепло 1024.8 1009.8
21 15.04 СВ 1 30 км ясно +6.9 -4.5 44 +7 +7 по сезону 1024.6 1009.6
22 15.04 СВ 1 30 км ясно +5.1 -4.5 50 +4 +4 тепло 1024.7 1009.6
23 15.04 штиль 0 25 км ясно +2.2 -3.1 68 +2 +2 по сезону 1024.6 1009.3
00 16.04 штиль 0 25 км ясно +1.4 -3.1 72 +1 +1 по сезону 1024.3 1009.0
01 16.04 СЗ 1 20 км ясно +0.5 -3.8 73 -1 -1 по сезону 1024.1 1008.7
02 16.04 СЗ 1 20 км ясно 0.0 -3.9 75 -2 -2 по сезону 1024.2 1008.8
03 16.04 З 1 15 км ясно -0.9 -3.9 80 -3 -3 холодно 1024.4 1008.9
04 16.04 СВ 1 15 км местами туман поземный ясно -1.9 -4.7 81 -4 -4 по сезону 1024.4 1008.9
05 16.04 штиль 0 15 км местами туман поземный ясно +0.4 -3.2 77 -1 0 по сезону 1024.7 1009.3
06 16.04 ЮВ 1 20 км ясно +4.4 -1.0 68 +3 +6 по сезону 1025.2 1010.0 -2.3 +10.5
07 16.04 В 3 20 км ясно +7.8 -2.8 47 +6 +10 тепло 1025.1 1010.1
08 16.04 В 5 40 км ясно +10.2 -2.8 40 +8 +12 тепло 1024.9 1010.0
09 16.04 В 8
{10}
40 км ясно +11.5 -4.2 33 +9 +11 по сезону 1024.6 1009.8
10 16.04 В 6 50 км ясно +12.0 -5.5 29 +10 +15 тепло 1024.5 1009.7
11 16.04 В 6
{11}
50 км ясно +13.3 -3.5 31 +11 +17 по сезону 1024.1 1009.4
12 16.04 В 6
{11}
40 км ясно +13.6 -4.6 28 +12 +17 по сезону 1023.9 1009.2
13 16.04 В 5
{10}
50 км ясно +14.0 -5.8 25 +13 +18 тепло 1023.3 1008.7
14 16.04 В 5
{9}
50 км ясно +14.7 -5.7 24 +14 +17 тепло 1023.1 1008.5
15 16.04 В 5
{10}
50 км 1/0
[Ci fib]
+14.8 -6.7 22 +14 +16 тепло 1022.8 1008.2
16 16.04 В 5 50 км 1/0
[Ci fib]
+14.4 -6.5 23 +13 +14 тепло 1023.0 1008.4
17 16.04 В 5 50 км 1/0
[Ci fib]
+13.7 -6.0 25 +12 +12 тепло 1023.2 1008.5
18 16.04 В 3
{10}
40 км 1/0
[Ci fib]
+12.4 -5.6 28 +11 +11 тепло 1023.7 1009.0 +4.4 +15.2
19 16.04 СВ 3 40 км 1/0
[Ci fib]
+11.3 -4.8 32 +10 +10 тепло 1024.6 1009.8
20 16.04 СВ 4 30 км 1/0
[Ci fib]
+10.0 -5.2 34 +8 +8 тепло 1025.2 1010.3
21 16.04 В 4 30 км 1/0
[Ci fib]
+9.0 -5.3 36 +7 +7 по сезону 1025.3 1010.4
22 16.04 В 5 30 км 1/0
[Ci fib]
+8.2 -4.6 40 +5 +5 тепло 1025.8 1010.8
23 16.04 В 3 30 км 1/0
[Ci fib]
+7.1 -2.6 50 +5 +5 тепло 1026.0 1011.0
00 17.04 СВ 1 30 км 1/0
[Ac trans]
+6.4 -0.8 60 +6 +6 по сезону 1026.0 1010.9
01 17.04 С 1 30 км 8/5 1500 м
[Sc Ac trans]
+5.3 -1.6 61 +5 +5 тепло 1026.0 1010.9
02 17.04 СЗ 1 30 км 8/3 1500 м
[Sc Ac trans]
+3.9 -1.1 70 +3 +3 по сезону 1026.2 1011.0
03 17.04 З 1 30 км 5/3 1500 м
[Sc Ac trans]
+2.9 -0.9 76 +2 +2 по сезону 1026.5 1011.2
04 17.04 СЗ 1 30 км 4/3 1500 м
[Sc Ac trans]
+2.6 -1.4 75 +1 +1 тепло 1026.7 1011.4
05 17.04 СЗ 1 25 км 3/0
[Ac trans]
+3.1 -0.5 77 +2 +2 по сезону 1027.3 1012.0
06 17.04 З 1 20 км 6/0
[Ac trans]
+5.4 +1.7 77 +4 +6 по сезону 1027.7 1012.5 +2.2 +12.4
07 17.04 СЗ 1 20 км 6/0
[Ac trans]
+8.3 +2.7 68 +8 +12 тепло 1027.5 1012.5
08 17.04 СВ 2 30 км 5/0
[Ac trans]
+10.9 +3.4 60 +10 +16 тепло 1027.5 1012.6
09 17.04 СВ 2 40 км 1/0
[Ac trans]
+12.8 +3.2 52 +12 +23 опасность
простуды
1027.3 1012.5
10 17.04 СВ 4 40 км 1/0
[Ac trans]
+14.3 +2.2 44 +13 +21 тепло 1027.1 1012.4
11 17.04 СВ 4
{7}
40 км ясно +16.4 +2.0 38 +16 +25 тепло 1026.4 1011.8
12 17.04 СВ 4-9
{9}
40 км 1/0
[Ac trans]
+17.2 -1.5 28 +17 +25 тепло 1026.0 1011.5
13 17.04 СВ 4-9
{9}
40 км 3/0
[Ac lent]
+18.1 -2.3 25 +18 +23 тепло 1025.7 1011.2
14 17.04 В 4 40 км ясно +18.4 -3.7 22 +18 +23 тепло 1025.6 1011.1
15 17.04 В 6
{9}
40 км ясно +18.4 -2.6 24 +18 +20 тепло 1025.5 1011.0
16 17.04 В 4 40 км ясно +18.1 -1.7 26 +18 +19 тепло 1025.7 1011.2
17 17.04 В 4 40 км ясно +17.3 -2.4 26 +17 +17 тепло 1025.8 1011.3
18 17.04 СВ 2
{9}
30 км 1/0
[Ci fib]
+16.4 -2.7 27 +17 +17 тепло 1026.3 1011.7 +5.4 +18.7
19 17.04 С 2 20 км ясно +14.7 -1.4 33 +15 +15 тепло 1027.1 1012.4
20 17.04 СВ 2 20 км ясно +13.5 -1.3 36 +13 +13 тепло 1027.4 1012.7
21 17.04 СВ 1 20 км ясно +10.3 -1.1 45 +10 +10 тепло 1027.7 1012.8
22 17.04 СВ 1 20 км 1/0
[Ci fib]
+9.7 -0.8 48 +10 +10 тепло 1028.0 1013.1
23 17.04 СВ 1 20 км ясно +8.0 -0.5 55 +8 +8 тепло 1028.4 1013.4
00 18.04 С 1 20 км ясно +5.9 -0.4 64 +5 +5 по сезону 1028.6 1013.5
01 18.04 З 1 30 км ясно +4.9 -0.3 69 +4 +4 тепло 1029.0 1013.8
02 18.04 З 1 30 км ясно +3.7 -0.7 73 +2 +2 по сезону 1029.4 1014.1
03 18.04 СЗ 1 30 км ясно +3.3 -0.7 75 +2 +2 по сезону 1029.6 1014.3
04 18.04 штиль 0 20 км ясно +2.5 -0.9 78 +2 +2 тепло 1030.0 1014.6
05 18.04 штиль 0 20 км ясно +3.0 +0.1 81 +2 +3 по сезону 1030.5 1015.2
06 18.04 штиль 0 20 км ясно +8.6 +2.6 66 +8 +12 тепло 1030.6 1015.6 +1.7 +16.4
07 18.04 В 2 25 км ясно +13.0 +1.6 46 +13 +18 тепло 1030.8 1016.0
08 18.04 В 3 30 км ясно +16.2 +1.1 36 +16 +23 тепло 1030.7 1016.1
09 18.04 В 6 40 км 1/1 2000 м
[Cu hum]
+17.8 +1.3 33 +17 +21 тепло 1030.9 1016.3
10 18.04 В 5 40 км 1/1 2000 м
[Cu hum]
+18.5 +1.0 31 +18 +24 тепло 1030.6 1016.1
11 18.04 СВ 5
{11}
50 км 1/1 2000 м
[Cu hum]
+19.5 +1.9 31 +20 +26 тепло 1030.4 1015.9
12 18.04 В 5
{11}
50 км 1/1 2000 м
[Cu hum]
+19.6 +1.1 29 +20 +25 тепло 1030.1 1015.6
13 18.04 В 5 50 км 1/1 2000 м
[Cu hum]
+19.7 +1.6 30 +20 +25 тепло 1029.8 1015.3
14 18.04 В 6 50 км 1/1 2000 м
[Cu hum]
+19.9 +1.3 29 +20 +23 тепло 1029.3 1014.9
15 18.04 В 4 50 км 1/1 2000 м
[Cu hum]
+20.2 +1.6 29 +21 +23 комфорт 1029.2 1014.8
16 18.04 В 4 50 км ясно +19.7 +1.6 30 +20 +21 тепло 1029.2 1014.8
17 18.04 В 4 50 км 1/0
[Ci fib]
+18.9 +0.9 30 +19 +19 тепло 1029.4 1014.9
18 18.04 В 3 50 км 1/0
[Ci fib]
+16.7 +1.1 35 +17 +17 тепло 1030.0 1015.4 +8.6 +20.4
19 18.04 В 2 50 км 1/0
[Ci fib]
+15.8 +1.1 37 +16 +16 тепло 1030.5 1015.8
20 18.04 СВ 2 50 км ясно +14.3 +1.9 43 +14 +14 тепло 1030.6 1015.9
21 18.04 СВ 2 40 км ясно +11.9 +1.8 50 +11 +11 тепло 1031.2 1016.3
22 18.04 СВ 1 40 км ясно +11.5 +1.4 50 +12 +12 тепло 1031.4 1016.5
23 18.04 ЮВ 1 40 км ясно +9.8 +0.7 53 +10 +10 тепло 1031.9 1016.9
00 19.04 СВ 1 40 км ясно +9.8 +0.7 53 +10 +10 тепло 1031.9 1016.9
01 19.04 З 1 40 км ясно +6.5 +0.6 66 +6 +6 тепло 1032.1 1016.9
02 19.04 С 2 40 км ясно +5.6 -0.7 64 +3 +3 по сезону 1032.5 1017.3
03 19.04 З 2 40 км ясно +4.5 +0.1 73 +2 +2 по сезону 1032.7 1017.4
04 19.04 СЗ 1 25 км 1/0
[Ci fib]
+3.8 0.0 76 +3 +3 тепло 1033.0 1017.7
05 19.04 З 1 25 км 1/0
[Ci fib]
+3.8 +0.7 80 +2 +3 по сезону 1033.3 1018.0
06 19.04 З 1 20 км 1/0
[Ci fib]
+8.2 +3.6 73 +8 +11 тепло 1033.4 1018.3 +2.9 +17.0
07 19.04 З 1 20 км ясно +12.0 +1.0 47 +12 +19 тепло 1033.3 1018.4
08 19.04 ЮЗ 2 18 км ясно +14.8 +2.3 43 +15 +23 тепло 1033.4 1018.6
09 19.04 СЗ 1 20 км ясно +17.3 +2.5 37 +18 +31 опасность
простуды
1033.2 1018.6
10 19.04 В 3 35 км ясно +19.4 +0.4 28 +20 +31 тепло 1032.7 1018.2
11 19.04 СВ 2 35 км ясно +20.4 +0.8 27 +21 +35 комфорт 1032.2 1017.7
12 19.04 В 5 40 км ясно +21.0 -0.9 23 +21 +28 комфорт 1031.8 1017.4
13 19.04 СВ 4 40 км ясно +21.8 -0.9 22 +21 +28 комфорт 1031.6 1017.2
14 19.04 СВ 4 40 км ясно +21.6 -0.4 23 +21 +26 комфорт 1031.0 1016.6
15 19.04 В 5 40 км ясно +21.9 -0.8 22 +21 +24 комфорт 1030.7 1016.3
16 19.04 СВ 2 40 км ясно +21.4 -0.6 23 +21 +23 комфорт 1030.4 1016.0
17 19.04 СВ 2 40 км ясно +20.6 -0.1 25 +21 +22 комфорт 1030.4 1016.0
18 19.04 С 2 40 км 1/0
[Ci fib]
+18.6 +0.2 29 +19 +19 тепло 1030.6 1016.1 +8.2 +22.1
19 19.04 С 2 30 км ясно +16.4 +0.5 34 +17 +17 тепло 1031.1 1016.5
20 19.04 С 1 40 км ясно +15.0 +0.4 37 +16 +16 тепло 1031.2 1016.5
21 19.04 СВ 1 40 км ясно +9.4 +0.8 55 +9 +9 по сезону 1031.6 1016.6
22 19.04 штиль 0 40 км ясно +10.2 +1.0 53 +10 +10 тепло 1031.7 1016.7
23 19.04 штиль 0 30 км ясно +8.4 +1.1 60 +8 +8 тепло 1031.5 1016.4
00 20.04 СЗ 1 30 км ясно +7.3 +2.0 69 +7 +7 тепло 1031.5 1016.4
01 20.04 З 1 30 км ясно +5.3 +1.4 76 +4 +4 тепло 1031.4 1016.2
02 20.04 СЗ 1 30 км ясно +4.7 +1.2 78 +4 +4 тепло 1031.4 1016.1
03 20.04 СЗ 1 20 км ясно +3.8 +0.8 81 +2 +2 по сезону 1031.3 1016.0
04 20.04 З 1 15 км местами туман поземный ясно +2.6 0.0 83 +1 +1 тепло 1031.5 1016.1
05 20.04 С 1 20 км ясно +4.1 +1.1 81 +3 +4 по сезону 1031.8 1016.5
06 20.04 В 1 20 км ясно +9.3 +2.8 64 +9 +12 тепло 1031.4 1016.4 +1.9 +18.6
07 20.04 З 1 20 км 1/0
[Ci fib]
+12.8 +3.7 54 +13 +19 тепло 1031.2 1016.4
08 20.04 С 2 30 км 4/0
[Ci fib]
+15.7 +3.8 45 +16 +24 тепло 1030.8 1016.1
09 20.04 З 1 40 км 5/0
[Ci fib]
+18.4 +4.2 39 +20 +32 тепло 1030.3 1015.8
10 20.04 С 3 40 км 8/0
[Cs]
+19.7 +2.1 31 +20 +29 тепло 1029.8 1015.3
11 20.04 СВ 3 40 км 8/0
[Cs]
+20.3 -1.0 24 +21 +30 комфорт 1029.4 1015.0
12 20.04 С 3 50 км 6/0
[Ci sp]
+20.3 -0.4 25 +21 +30 комфорт 1029.0 1014.6
13 20.04 С 3 50 км 8/0
[Ci sp]
+20.9 -0.4 24 +21 +29 комфорт 1028.3 1013.9
14 20.04 С 3 50 км 8/0
[Ci sp]
+20.6 -0.1 25 +21 +26 комфорт 1027.8 1013.4
15 20.04 С 3 50 км 8/0
[Ci sp]
+20.7 -1.2 23 +21 +24 комфорт 1027.4 1013.0
16 20.04 СВ 4 50 км 8/0
[Ci sp]
+19.5 -0.5 26 +20 +21 тепло 1027.2 1012.8
17 20.04 С 3 50 км 9/0
[Ac trans Ci sp]
+18.3 -3.2 23 +18 +19 тепло 1027.0 1012.5
18 20.04 С 2 50 км 9/0
[Ac trans Ci sp]
+16.9 -3.3 25 +17 +17 тепло 1027.0 1012.4 +9.3 +21.2
19 20.04 С 2 50 км 9/0
[Ac trans Ci sp]
+15.3 -1.3 32 +15 +15 тепло 1027.2 1012.6
20 20.04 СВ 1 40 км 4/0
[Ci fib]
+14.2 -1.1 35 +15 +15 тепло 1027.1 1012.4
21 20.04 С 1 35 км 1/0
[Ci fib]
+9.0 -0.3 52 +9 +9 тепло 1027.5 1012.5
22 20.04 СЗ 1 30 км ясно +8.4 -0.1 55 +8 +8 тепло 1027.5 1012.5
23 20.04 штиль 0 30 км ясно +6.9 +0.1 62 +6 +6 тепло 1027.4 1012.3
00 21.04 С 1 30 км ясно +6.0 +0.9 70 +5 +5 по сезону 1027.2 1012.1
01 21.04 С 1 25 км ясно +5.5 +0.5 70 +5 +5 тепло 1026.9 1011.8
02 21.04 З 2 30 км ясно +4.4 -0.2 72 +2 +2 по сезону 1026.7 1011.5
03 21.04 СЗ 1 30 км ясно +3.5 0.0 78 +2 +2 по сезону 1026.8 1011.5
04 21.04 СЗ 1 20 км 1/0
[Ac trans]
+3.0 -0.1 80 +2 +2 по сезону 1026.6 1011.3
05 21.04 штиль 0 20 км 1/0
[Ac trans]
+3.9 +0.6 79 +3 +4 по сезону 1026.6 1011.4
06 21.04 С 1 30 км 1/0
[Ci fib]
+9.2 +2.1 61 +9 +12 тепло 1026.1 1011.2 +2.2 +16.9
07 21.04 СВ 1 40 км 1/0
[Ci fib]
+12.4 +1.1 46 +13 +19 тепло 1025.8 1011.0
08 21.04 СЗ 2 40 км 1/0
[Ci fib]
+14.0 +0.9 41 +14 +22 тепло 1025.8 1011.1

 

Местоположение метеостанции Вроцлав (Польша): широта 51.10 долгота 16.88 высота над уровнем моря 124 м.

В архиве по умолчанию представлена погода во Вроцлаве за последнюю неделю. Архивные данные за месяц целиком и за предыдущие месяцы, начиная с января 2011 года, Вы можете получить, выбрав интересующий диапазон дат из раскрывающегося списка и нажав кнопку "Ввод!".


*Определитесь, кто Вы:
робот инопланетянин человек

Внимание! Время в таблицах - всемирное. Для получения местного времени необходимо прибавить поправку, которая равна 1 ч.

Смотрите также архив погоды в соседних городах и на ближайших метеорологических станциях:

Погода в Легнице (Польша) (49 км)
Погода в Клодзко (Польша) (77 км)
Погода в Еленя-Гуре (Польша) (79 км)
Погода в Ополе (Польша) (83 км)
Погода в Лешно (Польша) (85 км)
Погода на Снежке (Чехия) (89 км)
Погода на Снежке (Польша) (91 км)
Погода в Поломе (Чехия) (92 км)
Погода в Пец-под-Снежкой (Чехия) (93 км)
Погода на Шераке (Чехия) (104 км)

Пояснения к столбцам:

Ветер - указаны скорость ветра в м/с - средняя за 10 мин, порывы в срок и между сроками (в фигурных скобках) и направление, откуда дует ветер: С - северный, СВ - северо-восточный, В - восточный, ЮВ - юго-восточный, Ю - южный, ЮЗ - юго-западный, З - западный, СЗ - северо-западный.
Видимость - горизонтальная дальность видимости в метрах или километрах. При видимости от 1 до 10 км при отсутствии осадков обычно наблюдается дымка, при ухудшении видимости до 1 км и менее - туман. В сухую погоду видимость может ухудшаться дымом, пылью или мглою.
Явления - указаны атмосферные явления, наблюдавшиеся в срок или в последний час перед сроком; фигурными скобками обозначены явления, наблюдавшиеся между сроками (за 1-3 часа до срока); квадратными скобками обозначены град или гололедные отложения с указанием их диаметра в мм.
Облачность - указаны через наклонную черту общая и нижняя облачность в баллах и высота нижней границы облаков в метрах; квадратными скобками обозначены формы облаков: Ci - перистые, Cs - перисто-слоистые, Cc - перисто-кучевые, Ac - высококучевые, As - высокослоистые, Sc - слоисто-кучевые, Ns - слоисто-дождевые, Cu - кучевые, Cb - кучево-дождевые. Подробнее классификацию облаков см. в Атласе облаков (PDF).
T - Температура воздуха - температура, измеренная на высоте 2 м над землей.
Td - Температура точки росы - температура, при понижении до которой содержащийся в воздухе водяной пар достигнет насыщения.
f - Относительная влажность воздуха - влажноcть воздуха, измеренная на высоте 2 м над землей.
Te - Эффективная температура - температура, которую ощущает одетый по сезону человек в тени. Характеристика душности погоды. При расчете учитывается влияние влажности воздуха и скорости ветра на теплоощущения человека.
Tes - Эффективная температура на солнце - температура, которую ощущает человек, с поправкой на солнечный нагрев. Характеристика знойности погоды. Зависит от высоты солнца над горизонтом, облачности и скорости ветра. Ночью, в пасмурную погоду, а также при ветре 12 м/с и более поправка равна нулю.
P - Атмосферное давление - приведенное к уровню моря атмосферное давление.
Po - Атмосферное давление - измеренное на уровне метеостанции атмосферное давление.
Tmin - Минимальная температура - минимум температуры воздуха на высоте 2 м над землей.
Tmax - Максимальная температура - максимум температуры воздуха на высоте 2 м над землей.
R - Количество осадков - Количество выпавших осадков за период времени, мм. При наведении курсора мыши на число - период времени, за который выпало указанное количество осадков.
R24 - Количество осадков - Количество выпавших осадков за 24 часа, мм.
S - Снежный покров - Высота снежного покрова, см. При наведении курсора мыши на число - состояние снежного покрова и степень покрытия местности в баллах.